QPF
0.00 0.00 0.00 0.00 0.00 0.00 0.00 0.00 0.00 0.00 0.00 0.00 0.00 0.00 0.00 0.01 0.00 0.00 0.00 0.00 0.00 0.02 0.03 0.02 0.03 0.04 0.04 0.03 0.01 0.00 0.00 0.00 0.00 0.00 0.00 0.00 0.01 0.00 0.00 0.00 0.00 0.00 0.00
0.01 0.00 0.00 0.00 0.00 0.00 0.00 0.00 0.00 0.00 0.00 0.00 0.00 0.00 0.00 0.00 0.01 0.01 0.01 0.00 0.00 0.00 0.01 0.01 0.02 0.01 0.01 0.01 0.01 0.00 0.00 0.00 0.00 0.00 0.00 0.00 0.04 0.03 0.00 0.00 0.00 0.00 0.00
0.01 0.00 0.00 0.00 0.00 0.00 0.00 0.00 0.00 0.00 0.00 0.00 0.00 0.00 0.00 0.00 0.00 0.01 0.01 0.00 0.00 0.00 0.00 0.00 0.00 0.00 0.00 0.00 0.00 0.00 0.00 0.00 0.00 0.00 0.00 0.00 0.05 0.10 0.04 0.01 0.01 0.01 0.01
0.01 0.00 0.00 0.00 0.00 0.00 0.00 0.00 0.00 0.00 0.00 0.00 0.00 0.00 0.00 0.00 0.00 0.00 0.00 0.00 0.01 0.01 0.01 0.00 0.00 0.00 0.00 0.00 0.00 0.00 0.00 0.00 0.00 0.01 0.03 0.01 0.06 0.11 0.02 0.01 0.01 0.01 0.04
0.00 0.00 0.00 0.00 0.00 0.00 0.00 0.00 0.00 0.00 0.00 0.00 0.00 0.00 0.01 0.01 0.00 0.00 0.01 0.02 0.02 0.02 0.03 0.04 0.02 0.01 0.00 0.00 0.00 0.00 0.00 0.00 0.00 0.02 0.06 0.04 0.03 0.02 0.02 0.02 0.00 0.00 0.02
0.01 0.00 0.00 0.00 0.01 0.00 0.00 0.00 0.00 0.00 0.00 0.00 0.00 0.01 0.01 0.01 0.01 0.01 0.04 0.05 0.04 0.03 0.05 0.05 0.05 0.03 0.01 0.00 0.00 0.00 0.00 0.00 0.01 0.02 0.05 0.08 0.04 0.02 0.04 0.02 0.01 0.00 0.01
0.01 0.00 0.00 0.01 0.01 0.00 0.00 0.00 0.00 0.00 0.00 0.00 0.00 0.00 0.00 0.01 0.01 0.03 0.06 0.06 0.05 0.04 0.04 0.03 0.02 0.01 0.00 0.00 0.00 0.00 0.00 0.00 0.00 0.01 0.04 0.05 0.02 0.01 0.01 0.00 0.00 0.01 0.01
0.01 0.00 0.00 0.01 0.02 0.01 0.00 0.00 0.00 0.00 0.00 0.00 0.00 0.00 0.00 0.00 0.01 0.03 0.05 0.06 0.08 0.05 0.02 0.01 0.01 0.01 0.00 0.01 0.00 0.00 0.00 0.00 0.00 0.01 0.03 0.03 0.01 0.00 0.00 0.00 0.00 0.00 0.00
0.02 0.01 0.01 0.02 0.01 0.00 0.00 0.00 0.00 0.00 0.00 0.00 0.00 0.00 0.00 0.01 0.02 0.04 0.06 0.10 0.10 0.04 0.02 0.04 0.04 0.02 0.02 0.02 0.01 0.01 0.00 0.00 0.00 0.00 0.01 0.00 0.00 0.00 0.00 0.00 0.00 0.00 0.00
0.07 0.04 0.04 0.05 0.02 0.00 0.00 0.00 0.00 0.00 0.00 0.00 0.00 0.00 0.02 0.04 0.04 0.06 0.05 0.06 0.06 0.02 0.01 0.01 0.01 0.00 0.00 0.00 0.00 0.00 0.00 0.00 0.00 0.00 0.00 0.00 0.00 0.00 0.00 0.00 0.00 0.00 0.00
0.18 0.17 0.15 0.10 0.02 0.00 0.00 0.00 0.00 0.00 0.00 0.00 0.00 0.01 0.03 0.04 0.03 0.06 0.04 0.04 0.02 0.00 0.00 0.00 0.00 0.00 0.00 0.00 0.00 0.00 0.00 0.00 0.00 0.00 0.00 0.00 0.00 0.00 0.00 0.00 0.00 0.00 0.00
0.24 0.25 0.08 0.05 0.01 0.00 0.00 0.00 0.00 0.00 0.00 0.00 0.00 0.01 0.03 0.03 0.04 0.04 0.03 0.02 0.00 0.00 0.00 0.00 0.00 0.00 0.00 0.00 0.00 0.00 0.00 0.00 0.00 0.00 0.00 0.00 0.00 0.00 0.00 0.00 0.00 0.00 0.00
0.05 0.04 0.03 0.01 0.00 0.00 0.00 0.00 0.00 0.00 0.01 0.01 0.00 0.01 0.01 0.02 0.01 0.01 0.00 0.00 0.00 0.00 0.00 0.00 0.00 0.00 0.00 0.00 0.00 0.00 0.00 0.00 0.00 0.00 0.00 0.00 0.00 0.00 0.00 0.00 0.00 0.00 0.00
0.04 0.01 0.01 0.01 0.01 0.00 0.00 0.00 0.00 0.00 0.01 0.01 0.00 0.00 0.01 0.02 0.02 0.01 0.00 0.00 0.00 0.00 0.00 0.00 0.00 0.00 0.00 0.00 0.00 0.00 0.00 0.00 0.00 0.00 0.00 0.00 0.00 0.00 0.00 0.00 0.00 0.00 0.00
0.07 0.03 0.01 0.01 0.00 0.00 0.00 0.00 0.00 0.00 0.00 0.00 0.00 0.00 0.00 0.00 0.00 0.00 0.00 0.00 0.00 0.00 0.00 0.00 0.00 0.00 0.00 0.00 0.00 0.00 0.00 0.00 0.00 0.00 0.00 0.00 0.00 0.00 0.00 0.00 0.00 0.00 0.00
0.09 0.03 0.02 0.01 0.00 0.00 0.00 0.00 0.00 0.00 0.00 0.00 0.00 0.00 0.00 0.00 0.00 0.00 0.00 0.00 0.00 0.00 0.00 0.00 0.00 0.00 0.00 0.00 0.00 0.00 0.00 0.00 0.00 0.00 0.00 0.00 0.00 0.00 0.00 0.00 0.00 0.00 0.00
0.12 0.06 0.05 0.01 0.00 0.00 0.01 0.00 0.00 0.01 0.01 0.01 0.00 0.00 0.00 0.00 0.00 0.00 0.00 0.00 0.00 0.00 0.00 0.00 0.00 0.00 0.00 0.00 0.00 0.00 0.00 0.00 0.00 0.00 0.00 0.00 0.00 0.00 0.01 0.01 0.01 0.00 0.01
0.16 0.15 0.08 0.01 0.01 0.01 0.01 0.00 0.00 0.00 0.00 0.00 0.00 0.00 0.00 0.00 0.00 0.00 0.00 0.00 0.00 0.00 0.00 0.00 0.00 0.00 0.00 0.00 0.00 0.00 0.00 0.00 0.00 0.00 0.00 0.00 0.00 0.00 0.00 0.01 0.01 0.01 0.01
0.05 0.06 0.03 0.02 0.02 0.01 0.01 0.00 0.00 0.00 0.00 0.00 0.00 0.00 0.00 0.00 0.00 0.00 0.00 0.00 0.00 0.00 0.01 0.02 0.03 0.03 0.03 0.02 0.02 0.01 0.00 0.00 0.00 0.00 0.00 0.00 0.00 0.00 0.00 0.00 0.01 0.03 0.03
0.02 0.05 0.06 0.05 0.03 0.04 0.03 0.01 0.00 0.00 0.00 0.00 0.00 0.00 0.01 0.01 0.01 0.01 0.01 0.02 0.02 0.03 0.05 0.08 0.09 0.07 0.05 0.04 0.02 0.01 0.01 0.01 0.01 0.00 0.00 0.00 0.00 0.00 0.00 0.00 0.00 0.01 0.03
0.03 0.05 0.05 0.05 0.09 0.08 0.05 0.02 0.01 0.01 0.00 0.00 0.01 0.02 0.03 0.02 0.02 0.04 0.07 0.08 0.07 0.07 0.06 0.06 0.05 0.04 0.03 0.02 0.02 0.01 0.00 0.00 0.00 0.00 0.00 0.00 0.00 0.00 0.00 0.00 0.00 0.01 0.02
0.03 0.02 0.04 0.09 0.09 0.05 0.04 0.04 0.02 0.01 0.01 0.02 0.02 0.02 0.01 0.02 0.03 0.04 0.05 0.05 0.04 0.03 0.03 0.03 0.02 0.01 0.01 0.02 0.02 0.02 0.00 0.00 0.00 0.00 0.00 0.00 0.00 0.00 0.00 0.00 0.00 0.00 0.01
0.01 0.02 0.05 0.10 0.09 0.05 0.05 0.04 0.02 0.02 0.03 0.03 0.02 0.02 0.01 0.03 0.05 0.06 0.04 0.02 0.01 0.01 0.00 0.00 0.00 0.01 0.01 0.01 0.01 0.02 0.02 0.01 0.00 0.00 0.00 0.00 0.00 0.00 0.00 0.00 0.00 0.00 0.00
0.00 0.00 0.01 0.04 0.05 0.05 0.04 0.02 0.02 0.02 0.02 0.01 0.02 0.02 0.02 0.03 0.03 0.02 0.01 0.00 0.00 0.00 0.00 0.00 0.00 0.00 0.01 0.01 0.01 0.01 0.02 0.02 0.02 0.01 0.00 0.00 0.00 0.00 0.00 0.00 0.00 0.00 0.00
0.00 0.00 0.01 0.01 0.01 0.02 0.02 0.02 0.03 0.03 0.02 0.01 0.01 0.00 0.00 0.00 0.00 0.00 0.00 0.00 0.00 0.00 0.00 0.00 0.00 0.01 0.01 0.01 0.01 0.01 0.01 0.01 0.01 0.01 0.01 0.00 0.00 0.00 0.00 0.00 0.01 0.02 0.02
0.00 0.00 0.00 0.00 0.00 0.00 0.00 0.00 0.00 0.00 0.00 0.00 0.00 0.00 0.00 0.00 0.00 0.00 0.00 0.00 0.00 0.00 0.00 0.00 0.00 0.01 0.01 0.01 0.01 0.01 0.02 0.02 0.01 0.01 0.01 0.00 0.00 0.00 0.00 0.00 0.00 0.01 0.01
MSLP
1014.51 1013.95 1013.58 1013.44 1013.51 1013.75 1014.05 1014.33 1014.54 1014.64 1014.64 1014.59 1014.54 1014.53 1014.58 1014.69 1014.83 1014.98 1015.10 1015.18 1015.21 1015.22 1015.23 1015.25 1015.31 1015.40 1015.51 1015.59 1015.65 1015.66 1015.63 1015.56 1015.49 1015.43 1015.42 1015.44 1015.51 1015.60 1015.71 1015.81 1015.89 1015.97 1016.05
1014.25 1013.79 1013.52 1013.47 1013.62 1013.90 1014.22 1014.50 1014.70 1014.78 1014.77 1014.72 1014.67 1014.68 1014.74 1014.87 1015.02 1015.17 1015.29 1015.37 1015.40 1015.41 1015.42 1015.44 1015.49 1015.55 1015.61 1015.65 1015.65 1015.60 1015.51 1015.40 1015.31 1015.24 1015.23 1015.27 1015.35 1015.45 1015.56 1015.67 1015.76 1015.85 1015.94
1013.86 1013.52 1013.37 1013.42 1013.65 1013.98 1014.33 1014.62 1014.81 1014.90 1014.89 1014.85 1014.82 1014.83 1014.91 1015.03 1015.18 1015.32 1015.42 1015.48 1015.51 1015.51 1015.52 1015.54 1015.58 1015.62 1015.65 1015.64 1015.59 1015.50 1015.37 1015.24 1015.14 1015.09 1015.09 1015.14 1015.23 1015.34 1015.44 1015.53 1015.62 1015.71 1015.81
1013.43 1013.23 1013.20 1013.35 1013.66 1014.03 1014.40 1014.71 1014.91 1014.99 1015.00 1014.98 1014.97 1015.00 1015.08 1015.19 1015.32 1015.43 1015.51 1015.54 1015.55 1015.55 1015.55 1015.57 1015.61 1015.64 1015.65 1015.62 1015.54 1015.42 1015.28 1015.15 1015.06 1015.03 1015.05 1015.11 1015.20 1015.30 1015.38 1015.44 1015.50 1015.56 1015.66
1013.09 1013.02 1013.10 1013.34 1013.70 1014.11 1014.49 1014.79 1014.99 1015.08 1015.11 1015.11 1015.12 1015.17 1015.26 1015.36 1015.46 1015.54 1015.57 1015.58 1015.56 1015.55 1015.56 1015.59 1015.63 1015.67 1015.67 1015.63 1015.55 1015.43 1015.29 1015.18 1015.11 1015.10 1015.13 1015.20 1015.28 1015.35 1015.39 1015.40 1015.41 1015.44 1015.51
1012.94 1012.97 1013.15 1013.45 1013.84 1014.25 1014.61 1014.89 1015.07 1015.17 1015.21 1015.23 1015.28 1015.35 1015.44 1015.54 1015.62 1015.66 1015.66 1015.63 1015.60 1015.58 1015.59 1015.63 1015.69 1015.74 1015.76 1015.73 1015.65 1015.54 1015.43 1015.34 1015.29 1015.30 1015.34 1015.40 1015.46 1015.48 1015.46 1015.41 1015.35 1015.33 1015.36
1013.02 1013.14 1013.37 1013.71 1014.09 1014.47 1014.78 1015.02 1015.16 1015.24 1015.29 1015.35 1015.43 1015.53 1015.64 1015.73 1015.80 1015.81 1015.78 1015.73 1015.68 1015.66 1015.68 1015.74 1015.82 1015.88 1015.92 1015.91 1015.85 1015.76 1015.66 1015.59 1015.56 1015.58 1015.62 1015.67 1015.69 1015.66 1015.57 1015.45 1015.33 1015.24 1015.23
1013.31 1013.49 1013.75 1014.08 1014.43 1014.74 1014.99 1015.15 1015.25 1015.31 1015.36 1015.44 1015.55 1015.69 1015.82 1015.93 1015.98 1015.98 1015.93 1015.87 1015.81 1015.79 1015.82 1015.90 1016.00 1016.08 1016.14 1016.14 1016.10 1016.02 1015.94 1015.88 1015.86 1015.88 1015.91 1015.93 1015.91 1015.84 1015.70 1015.52 1015.33 1015.19 1015.12
1013.73 1013.95 1014.22 1014.52 1014.80 1015.03 1015.19 1015.27 1015.31 1015.34 1015.40 1015.50 1015.64 1015.81 1015.98 1016.10 1016.15 1016.15 1016.09 1016.02 1015.96 1015.95 1015.99 1016.08 1016.19 1016.30 1016.36 1016.37 1016.33 1016.26 1016.19 1016.13 1016.10 1016.11 1016.13 1016.13 1016.08 1015.97 1015.80 1015.58 1015.35 1015.17 1015.07
1014.15 1014.39 1014.65 1014.91 1015.12 1015.26 1015.33 1015.34 1015.33 1015.33 1015.39 1015.51 1015.69 1015.89 1016.08 1016.22 1016.28 1016.27 1016.22 1016.14 1016.09 1016.08 1016.13 1016.24 1016.36 1016.47 1016.53 1016.54 1016.50 1016.42 1016.33 1016.27 1016.23 1016.23 1016.23 1016.22 1016.16 1016.03 1015.85 1015.62 1015.38 1015.18 1015.06
1014.46 1014.71 1014.96 1015.17 1015.31 1015.38 1015.38 1015.33 1015.28 1015.27 1015.34 1015.48 1015.69 1015.91 1016.12 1016.27 1016.34 1016.34 1016.28 1016.21 1016.16 1016.16 1016.22 1016.33 1016.45 1016.55 1016.61 1016.61 1016.55 1016.45 1016.35 1016.26 1016.21 1016.19 1016.19 1016.17 1016.12 1016.00 1015.83 1015.62 1015.40 1015.21 1015.08
1014.57 1014.83 1015.06 1015.24 1015.34 1015.35 1015.31 1015.23 1015.18 1015.18 1015.26 1015.42 1015.64 1015.88 1016.10 1016.25 1016.33 1016.32 1016.27 1016.21 1016.17 1016.18 1016.24 1016.34 1016.45 1016.54 1016.58 1016.56 1016.47 1016.36 1016.23 1016.13 1016.06 1016.03 1016.02 1016.01 1015.97 1015.88 1015.74 1015.56 1015.38 1015.21 1015.09
1014.47 1014.73 1014.95 1015.11 1015.19 1015.19 1015.14 1015.08 1015.04 1015.06 1015.17 1015.35 1015.59 1015.83 1016.04 1016.19 1016.26 1016.26 1016.21 1016.16 1016.12 1016.14 1016.20 1016.29 1016.38 1016.45 1016.46 1016.41 1016.31 1016.17 1016.02 1015.90 1015.81 1015.77 1015.76 1015.75 1015.73 1015.67 1015.57 1015.43 1015.28 1015.14 1015.04
1014.21 1014.46 1014.67 1014.82 1014.91 1014.93 1014.92 1014.90 1014.91 1014.98 1015.12 1015.32 1015.55 1015.78 1015.98 1016.11 1016.17 1016.17 1016.13 1016.08 1016.06 1016.08 1016.13 1016.21 1016.28 1016.32 1016.30 1016.23 1016.10 1015.94 1015.78 1015.64 1015.53 1015.48 1015.45 1015.45 1015.43 1015.39 1015.32 1015.22 1015.10 1014.97 1014.87
1013.89 1014.12 1014.31 1014.47 1014.59 1014.66 1014.71 1014.76 1014.84 1014.97 1015.14 1015.35 1015.58 1015.79 1015.95 1016.06 1016.11 1016.10 1016.07 1016.04 1016.03 1016.05 1016.09 1016.14 1016.19 1016.19 1016.15 1016.04 1015.90 1015.72 1015.55 1015.40 1015.28 1015.21 1015.17 1015.14 1015.12 1015.08 1015.01 1014.91 1014.80 1014.68 1014.56
1013.62 1013.81 1014.00 1014.17 1014.32 1014.45 1014.59 1014.73 1014.90 1015.08 1015.29 1015.50 1015.70 1015.87 1016.00 1016.07 1016.10 1016.10 1016.08 1016.06 1016.06 1016.08 1016.11 1016.14 1016.15 1016.12 1016.04 1015.92 1015.76 1015.58 1015.40 1015.24 1015.11 1015.01 1014.94 1014.89 1014.83 1014.76 1014.67 1014.55 1014.41 1014.27 1014.12
1013.50 1013.65 1013.82 1013.99 1014.19 1014.40 1014.62 1014.85 1015.09 1015.33 1015.56 1015.76 1015.93 1016.06 1016.13 1016.17 1016.19 1016.18 1016.17 1016.17 1016.18 1016.20 1016.22 1016.22 1016.19 1016.13 1016.02 1015.88 1015.71 1015.53 1015.35 1015.19 1015.04 1014.92 1014.81 1014.71 1014.60 1014.48 1014.33 1014.17 1013.99 1013.79 1013.60
1013.59 1013.70 1013.84 1014.02 1014.25 1014.52 1014.83 1015.14 1015.44 1015.72 1015.96 1016.14 1016.26 1016.33 1016.36 1016.36 1016.35 1016.34 1016.35 1016.36 1016.39 1016.40 1016.41 1016.38 1016.32 1016.23 1016.09 1015.93 1015.76 1015.58 1015.41 1015.25 1015.10 1014.95 1014.81 1014.65 1014.47 1014.28 1014.07 1013.84 1013.59 1013.33 1013.08
1013.91 1013.97 1014.08 1014.26 1014.51 1014.84 1015.20 1015.57 1015.93 1016.23 1016.46 1016.60 1016.67 1016.68 1016.65 1016.61 1016.59 1016.57 1016.59 1016.62 1016.65 1016.67 1016.66 1016.62 1016.53 1016.40 1016.25 1016.08 1015.91 1015.75 1015.59 1015.43 1015.28 1015.11 1014.92 1014.71 1014.47 1014.20 1013.91 1013.61 1013.30 1012.98 1012.66
1014.41 1014.43 1014.51 1014.69 1014.96 1015.31 1015.71 1016.12 1016.49 1016.80 1017.01 1017.11 1017.13 1017.08 1017.00 1016.92 1016.87 1016.86 1016.88 1016.92 1016.96 1016.98 1016.96 1016.90 1016.78 1016.64 1016.47 1016.30 1016.15 1016.00 1015.86 1015.71 1015.55 1015.37 1015.15 1014.88 1014.58 1014.25 1013.90 1013.53 1013.15 1012.77 1012.39
1015.04 1015.04 1015.10 1015.26 1015.52 1015.88 1016.29 1016.72 1017.10 1017.40 1017.58 1017.64 1017.61 1017.51 1017.38 1017.26 1017.19 1017.17 1017.20 1017.25 1017.30 1017.31 1017.29 1017.21 1017.08 1016.92 1016.75 1016.59 1016.44 1016.31 1016.19 1016.06 1015.90 1015.70 1015.45 1015.15 1014.80 1014.42 1014.01 1013.59 1013.16 1012.73 1012.30
1015.74 1015.73 1015.76 1015.90 1016.14 1016.49 1016.90 1017.32 1017.70 1017.98 1018.14 1018.17 1018.09 1017.94 1017.77 1017.63 1017.53 1017.50 1017.52 1017.58 1017.63 1017.65 1017.62 1017.53 1017.40 1017.24 1017.07 1016.91 1016.78 1016.66 1016.55 1016.43 1016.27 1016.06 1015.79 1015.46 1015.08 1014.66 1014.21 1013.75 1013.28 1012.81 1012.34
1016.44 1016.43 1016.45 1016.56 1016.77 1017.09 1017.48 1017.89 1018.25 1018.52 1018.66 1018.67 1018.56 1018.39 1018.19 1018.01 1017.90 1017.85 1017.86 1017.90 1017.95 1017.97 1017.94 1017.85 1017.72 1017.56 1017.40 1017.25 1017.12 1017.01 1016.90 1016.78 1016.61 1016.39 1016.10 1015.74 1015.34 1014.89 1014.41 1013.93 1013.43 1012.93 1012.43
1017.11 1017.11 1017.11 1017.19 1017.37 1017.65 1018.01 1018.40 1018.75 1019.01 1019.15 1019.15 1019.03 1018.83 1018.62 1018.42 1018.27 1018.20 1018.19 1018.22 1018.26 1018.27 1018.23 1018.15 1018.02 1017.87 1017.70 1017.55 1017.42 1017.30 1017.18 1017.04 1016.86 1016.61 1016.30 1015.92 1015.49 1015.02 1014.53 1014.02 1013.51 1012.99 1012.47
1017.72 1017.73 1017.73 1017.78 1017.92 1018.16 1018.49 1018.86 1019.20 1019.46 1019.60 1019.60 1019.49 1019.29 1019.05 1018.83 1018.66 1018.55 1018.51 1018.51 1018.53 1018.53 1018.49 1018.40 1018.28 1018.12 1017.95 1017.79 1017.64 1017.49 1017.34 1017.17 1016.95 1016.68 1016.34 1015.94 1015.48 1014.99 1014.48 1013.96 1013.43 1012.90 1012.36
1018.27 1018.30 1018.29 1018.31 1018.42 1018.63 1018.93 1019.28 1019.62 1019.88 1020.03 1020.04 1019.93 1019.73 1019.48 1019.23 1019.02 1018.88 1018.80 1018.76 1018.75 1018.73 1018.68 1018.58 1018.45 1018.28 1018.10 1017.91 1017.73 1017.54 1017.35 1017.13 1016.87 1016.55 1016.18 1015.75 1015.28 1014.77 1014.24 1013.70 1013.16 1012.62 1012.09
Thickness
5783 5783 5782 5782 5781 5781 5779 5778 5778 5777 5775 5773 5773 5771 5770 5770 5770 5770 5770 5771 5770 5771 5770 5769 5769 5767 5766 5764 5763 5762 5762 5762 5761 5760 5758 5755 5753 5753 5753 5753 5754 5753 5751
5782 5779 5779 5779 5778 5776 5774 5773 5773 5772 5771 5771 5770 5769 5768 5767 5767 5765 5765 5765 5765 5766 5765 5764 5764 5763 5762 5762 5760 5759 5759 5760 5760 5758 5756 5754 5753 5751 5749 5749 5749 5749 5747
5779 5777 5776 5776 5774 5772 5770 5768 5767 5767 5767 5766 5766 5765 5764 5764 5763 5761 5760 5759 5759 5759 5758 5757 5757 5756 5756 5756 5755 5754 5755 5756 5756 5755 5754 5753 5751 5750 5748 5746 5746 5745 5744
5777 5776 5775 5772 5769 5767 5766 5764 5763 5762 5762 5761 5760 5760 5760 5759 5758 5758 5756 5755 5754 5754 5754 5753 5752 5750 5749 5749 5749 5748 5748 5749 5750 5750 5750 5749 5747 5746 5746 5745 5744 5743 5741
5777 5775 5773 5769 5766 5765 5765 5763 5761 5759 5758 5756 5755 5755 5754 5753 5753 5753 5752 5751 5750 5750 5749 5748 5748 5747 5745 5745 5744 5742 5742 5742 5743 5744 5744 5744 5741 5740 5741 5742 5742 5741 5738
5775 5772 5769 5766 5764 5763 5763 5762 5759 5757 5755 5753 5751 5751 5750 5749 5749 5749 5748 5747 5745 5744 5742 5742 5742 5742 5740 5739 5738 5737 5737 5737 5737 5736 5735 5734 5732 5732 5732 5734 5737 5738 5735
5773 5771 5767 5764 5762 5761 5760 5758 5756 5754 5752 5750 5747 5746 5746 5745 5744 5743 5742 5741 5740 5738 5737 5735 5735 5735 5734 5733 5732 5730 5729 5730 5730 5728 5725 5723 5722 5723 5723 5724 5727 5731 5730
5771 5768 5766 5762 5759 5756 5754 5751 5749 5748 5747 5745 5744 5743 5742 5742 5740 5738 5736 5733 5732 5731 5730 5729 5728 5727 5727 5726 5725 5723 5722 5723 5723 5720 5716 5714 5713 5714 5715 5716 5717 5720 5723
5769 5765 5762 5758 5754 5751 5748 5746 5744 5743 5742 5740 5739 5738 5737 5735 5733 5732 5730 5727 5725 5723 5722 5721 5720 5719 5720 5719 5717 5715 5714 5715 5716 5713 5709 5707 5706 5707 5709 5709 5709 5709 5711
5765 5762 5757 5754 5751 5748 5746 5744 5741 5740 5739 5736 5733 5731 5729 5727 5726 5725 5724 5722 5720 5719 5717 5715 5713 5712 5712 5710 5709 5707 5706 5706 5707 5705 5702 5701 5701 5701 5701 5702 5701 5700 5700
5758 5756 5754 5751 5749 5748 5746 5744 5741 5738 5736 5734 5731 5728 5725 5723 5721 5719 5718 5716 5715 5714 5713 5710 5708 5707 5705 5704 5701 5700 5698 5696 5696 5695 5695 5695 5695 5695 5694 5695 5694 5693 5693
5747 5749 5751 5751 5750 5749 5747 5743 5739 5735 5733 5731 5728 5726 5723 5720 5716 5713 5712 5711 5710 5709 5707 5704 5702 5699 5698 5697 5695 5693 5692 5690 5688 5687 5687 5687 5687 5687 5687 5687 5687 5686 5686
5747 5747 5751 5753 5752 5749 5745 5741 5736 5733 5730 5727 5724 5722 5719 5714 5710 5707 5705 5704 5703 5702 5700 5697 5695 5693 5690 5688 5688 5687 5685 5684 5682 5681 5680 5679 5679 5679 5680 5679 5679 5679 5679
5744 5745 5749 5751 5749 5746 5742 5736 5731 5728 5726 5723 5720 5718 5714 5710 5707 5704 5700 5697 5694 5694 5692 5690 5688 5686 5684 5681 5679 5679 5678 5677 5676 5675 5675 5674 5673 5672 5672 5672 5670 5670 5671
5745 5746 5748 5750 5746 5743 5739 5734 5729 5725 5721 5719 5715 5711 5708 5705 5702 5699 5695 5692 5689 5687 5686 5683 5681 5678 5676 5675 5673 5672 5670 5668 5667 5667 5667 5666 5666 5665 5663 5662 5662 5661 5662
5755 5756 5755 5749 5743 5738 5733 5729 5725 5720 5714 5708 5706 5704 5702 5699 5694 5691 5688 5685 5684 5683 5679 5676 5673 5671 5668 5666 5666 5665 5664 5661 5660 5658 5657 5656 5656 5655 5654 5653 5653 5652 5653
5754 5751 5747 5741 5734 5729 5725 5720 5715 5709 5703 5699 5697 5696 5694 5691 5687 5683 5679 5675 5673 5671 5669 5666 5664 5661 5659 5656 5654 5653 5652 5650 5648 5647 5646 5644 5643 5642 5642 5642 5642 5642 5643
5747 5741 5736 5734 5728 5722 5716 5712 5707 5700 5695 5692 5689 5686 5684 5682 5678 5674 5669 5665 5663 5660 5656 5653 5650 5646 5643 5641 5640 5639 5638 5636 5635 5633 5631 5629 5628 5627 5628 5629 5630 5631 5633
5736 5731 5728 5725 5719 5714 5708 5703 5698 5692 5686 5682 5679 5676 5673 5669 5665 5661 5657 5654 5652 5648 5643 5639 5634 5630 5627 5626 5626 5628 5625 5623 5621 5619 5617 5616 5613 5612 5612 5613 5614 5616 5618
5727 5724 5719 5714 5709 5705 5699 5695 5690 5683 5676 5671 5667 5664 5660 5656 5653 5650 5646 5642 5638 5634 5628 5626 5623 5620 5616 5613 5613 5612 5610 5609 5606 5603 5600 5597 5594 5592 5593 5593 5594 5597 5601
5720 5715 5709 5703 5698 5694 5689 5683 5677 5670 5664 5659 5654 5650 5647 5646 5643 5639 5634 5630 5626 5621 5617 5613 5610 5606 5600 5597 5593 5591 5593 5591 5587 5583 5577 5572 5569 5568 5568 5567 5568 5571 5579
5710 5704 5697 5692 5687 5684 5678 5672 5666 5659 5651 5645 5641 5638 5636 5633 5630 5625 5620 5614 5610 5606 5601 5596 5590 5585 5579 5573 5566 5563 5563 5569 5568 5562 5553 5547 5543 5540 5538 5538 5538 5545 5552
5700 5694 5688 5682 5677 5672 5667 5662 5656 5648 5640 5634 5630 5627 5623 5619 5615 5610 5604 5599 5594 5588 5581 5574 5567 5561 5554 5547 5540 5534 5530 5535 5537 5538 5531 5526 5520 5516 5514 5513 5516 5521 5526
5692 5687 5680 5673 5667 5661 5656 5650 5643 5635 5628 5623 5618 5613 5609 5605 5599 5593 5588 5582 5575 5569 5562 5554 5547 5539 5532 5524 5518 5513 5509 5509 5510 5514 5512 5508 5504 5500 5498 5499 5501 5505 5510
5684 5677 5669 5661 5654 5648 5645 5639 5632 5624 5617 5611 5605 5600 5595 5589 5583 5577 5571 5564 5558 5551 5544 5537 5531 5525 5517 5509 5503 5499 5497 5496 5496 5495 5495 5494 5493 5491 5490 5490 5491 5495 5500
5672 5666 5658 5649 5641 5637 5633 5627 5619 5611 5603 5596 5590 5585 5579 5573 5567 5562 5555 5549 5543 5536 5531 5525 5520 5515 5509 5502 5496 5490 5486 5483 5483 5481 5481 5483 5482 5485 5485 5484 5486 5489 5494